Wind_Speed
45 43 41 39 38 32 29 27 26 29 26 22 23 23 24 26 33 55 64 56 62 60 63 63 59 61 54 56 55 51 48 49 56 64 61 58 52 46 47 48 47 45 42 39 38
40 39 37 38 35 31 28 32 34 32 33 35 30 30 33 32 31 35 43 52 60 68 65 63 66 68 62 60 60 56 51 57 62 64 63 60 54 49 44 48 51 51 48 43 41
37 37 35 34 33 32 35 37 37 40 41 39 39 36 37 38 38 39 40 45 45 60 64 66 65 65 62 66 67 64 57 62 65 66 70 62 59 58 52 50 54 52 51 49 46
42 39 41 42 42 44 45 44 46 44 45 45 46 45 45 46 43 43 45 44 46 49 58 60 69 72 70 68 61 70 62 65 69 65 69 68 66 64 57 59 53 50 52 50 52
41 43 45 47 45 46 49 52 52 50 44 42 43 49 50 49 49 51 50 52 51 51 53 55 61 59 68 72 69 69 70 68 71 69 66 64 62 69 60 64 68 56 55 56 55
38 38 38 35 35 35 33 34 35 38 42 45 45 48 51 53 55 57 54 55 57 59 57 58 57 66 63 71 73 71 71 73 74 73 72 67 64 67 64 68 66 59 52 54 57
26 25 29 30 29 29 28 27 29 34 36 38 41 44 47 50 51 55 60 59 57 60 65 63 64 62 62 67 69 82 79 80 80 83 78 79 72 67 71 73 69 69 62 57 56
28 33 33 35 33 34 32 34 34 33 35 38 43 47 49 53 57 59 60 62 63 61 64 66 66 67 67 66 67 69 75 87 89 94 84 83 79 72 74 76 69 72 70 65 64
33 39 40 44 42 45 46 49 44 46 45 45 44 46 50 54 57 59 58 62 63 65 67 70 71 70 72 71 71 72 69 75 77 100 106 86 74 79 79 80 79 74 74 71 71
37 44 47 41 44 46 51 56 59 57 56 57 54 51 52 58 59 59 61 63 63 63 65 67 69 73 74 77 74 74 74 73 73 77 95 97 78 84 82 82 87 85 84 76 75
44 43 49 52 51 52 55 58 60 62 63 58 57 60 61 61 64 60 63 66 68 70 69 68 70 72 76 78 77 79 75 74 80 78 87 100 93 96 92 82 88 82 84 86 82
48 51 55 57 60 62 62 62 61 64 65 60 60 61 64 64 67 66 64 68 71 70 70 73 74 78 79 80 82 82 82 78 82 88 82 91 98 106 96 92 89 90 85 88 89
50 55 59 64 65 68 63 61 59 60 66 63 62 63 64 65 67 64 62 65 70 72 70 69 77 76 79 81 84 84 84 82 81 92 92 84 96 101 101 101 96 91 86 87 90
61 62 65 71 70 72 64 60 58 58 61 61 61 63 64 61 61 59 59 59 63 65 68 73 78 79 80 83 90 89 89 86 82 89 90 95 92 95 98 104 103 96 93 85 89
69 67 70 77 74 71 66 61 59 57 59 60 61 62 58 55 56 55 54 53 56 57 59 68 72 75 77 78 86 81 87 84 85 88 94 97 99 92 99 98 108 101 98 93 94
72 70 73 75 78 70 64 63 61 60 61 61 61 61 60 56 53 52 50 50 54 57 62 65 70 72 78 79 82 83 86 86 86 89 93 96 99 94 94 95 97 104 103 101 96
77 75 78 76 77 68 63 61 60 58 59 62 63 59 59 57 55 54 53 54 56 58 62 65 69 71 76 79 79 79 85 87 85 86 73 77 96 95 88 94 92 97 108 103 100
79 77 78 81 77 65 62 61 61 60 61 60 60 58 56 54 52 52 53 56 58 60 64 67 69 73 74 76 77 78 81 86 89 87 83 90 82 85 84 90 82 92 98 110 101
84 80 77 81 68 62 61 61 61 62 60 61 57 52 47 44 45 49 54 56 61 61 58 65 69 68 67 66 66 71 73 80 81 82 84 78 83 85 92 84 81 91 93 99 105
80 79 81 73 63 60 60 60 61 60 60 56 50 46 46 49 52 53 55 58 57 57 56 60 62 59 56 56 55 58 62 66 69 72 73 74 83 92 92 84 90 95 88 84 101
76 79 78 67 59 59 60 61 61 61 57 51 48 49 51 54 56 57 54 51 53 52 51 53 52 50 44 42 48 48 47 54 59 64 72 82 84 90 87 86 87 90 84 88 88
76 77 71 62 56 58 60 61 61 60 54 49 51 53 54 57 60 54 51 51 50 48 44 45 44 40 35 37 42 39 44 49 52 59 71 78 81 87 77 77 82 81 85 88 85
75 73 64 56 55 58 59 60 60 58 51 49 53 55 56 57 57 53 52 50 48 44 37 36 36 34 34 35 38 39 46 49 52 59 66 75 80 76 76 78 80 82 79 82 77
71 68 62 52 53 58 58 58 59 52 48 50 53 57 59 59 53 54 53 48 43 37 33 30 29 28 31 33 37 42 44 48 56 69 70 68 66 65 66 73 70 63 69 68 67
70 66 57 55 56 56 56 58 56 49 49 51 55 56 59 59 62 56 53 45 38 32 30 27 26 27 28 36 40 47 52 58 65 72 63 64 63 62 60 58 59 58 63 63 69
69 66 56 55 56 55 55 57 49 47 49 52 54 58 59 61 59 58 50 41 34 29 27 24 23 26 28 38 43 54 65 67 70 68 61 53 54 65 60 52 47 49 62 61 64
69 62 57 57 53 54 55 54 44 46 49 53 56 60 62 61 58 52 44 36 30 27 23 21 21 25 29 40 47 69 69 76 71 70 55 43 46 60 62 48 62 51 44 47 57
Wind_Direction
295 294 296 294 294 286 275 263 269 279 281 275 257 263 254 245 243 234 239 241 247 244 249 249 240 238 237 245 241 239 239 234 236 231 227 227 225 236 238 237 236 237 235 237 238
295 292 291 290 289 281 275 274 270 272 276 278 275 252 252 250 247 247 238 235 235 243 249 248 246 241 241 243 241 239 238 238 234 230 222 222 223 227 237 239 249 242 237 238 240
290 291 293 283 279 277 277 278 276 277 270 275 268 267 258 248 249 244 243 240 230 231 239 245 247 245 249 243 241 238 237 236 237 230 225 224 227 228 231 227 246 244 242 240 240
288 294 291 289 284 282 281 277 278 275 278 275 272 267 264 262 249 248 247 242 245 239 229 233 244 240 244 237 244 237 236 237 237 236 230 232 234 230 234 229 239 247 246 243 243
288 287 287 290 287 281 281 279 281 277 269 271 271 271 267 263 261 257 248 246 243 245 245 240 234 235 240 238 241 238 238 237 237 233 229 233 231 231 235 230 235 235 244 249 247
293 293 294 293 293 289 287 288 283 275 273 271 270 268 268 267 263 259 261 255 247 245 243 248 246 239 233 233 235 229 231 233 233 230 229 230 230 226 233 226 235 234 238 247 243
299 304 298 296 304 294 284 286 289 285 282 277 271 269 266 266 262 257 259 260 257 252 247 245 245 246 242 237 232 233 232 231 236 233 233 239 235 228 235 230 237 233 232 235 240
296 303 301 289 291 295 286 289 287 284 292 282 276 272 269 267 265 261 257 260 258 252 251 248 248 247 245 243 241 239 234 234 235 234 238 240 235 233 231 230 232 229 232 239 236
288 306 293 296 295 288 285 287 292 293 294 289 283 273 267 266 264 263 261 258 256 254 253 250 247 247 247 245 243 244 242 241 237 237 237 238 234 235 232 230 231 230 234 235 238
306 297 307 310 300 293 288 288 285 287 288 289 284 283 280 270 266 264 260 258 257 253 251 253 251 248 249 249 245 245 244 240 242 243 240 234 228 228 234 232 230 232 233 234 235
297 314 318 317 315 304 297 290 285 283 282 284 285 281 279 276 268 262 263 260 255 254 252 249 252 252 251 252 251 247 243 244 242 242 241 236 231 227 233 230 227 231 233 234 238
293 312 313 316 316 314 304 299 290 286 282 282 283 278 277 276 272 266 262 261 261 257 255 256 254 252 252 252 251 249 248 247 241 241 239 237 232 228 233 231 226 228 231 233 236
305 312 314 316 316 318 309 303 300 290 285 284 281 276 275 274 271 272 271 265 262 261 261 260 258 258 256 254 255 252 250 249 239 236 237 235 236 233 230 228 225 229 232 231 233
307 311 316 317 317 318 311 306 304 296 292 288 283 279 278 278 280 277 271 267 263 262 261 259 259 260 258 256 254 254 253 250 245 238 237 236 231 231 232 227 225 227 227 230 233
310 306 314 317 317 316 311 309 305 303 295 291 287 283 284 283 282 280 275 269 265 262 262 261 260 258 257 257 256 253 251 248 245 241 237 236 233 226 231 229 226 228 227 227 231
307 309 311 315 317 314 311 308 307 302 296 292 289 289 289 287 283 282 274 273 272 269 269 268 267 264 259 255 252 250 250 248 245 243 238 237 236 224 229 229 229 231 227 227 230
304 308 309 314 318 313 312 310 306 302 298 294 295 293 293 288 284 281 280 279 278 276 274 274 268 262 257 254 252 249 246 245 243 239 239 233 237 229 233 228 229 229 228 226 228
301 307 310 314 316 313 311 310 308 306 302 299 298 295 290 287 284 284 284 283 282 280 278 273 266 261 259 256 254 251 248 246 244 239 235 229 229 225 226 226 228 227 229 226 226
300 306 309 314 313 313 313 312 309 307 304 304 302 295 292 292 292 291 291 290 287 281 274 268 266 268 264 261 254 251 247 242 240 237 236 229 223 220 223 223 223 223 227 230 226
299 303 310 312 312 314 313 312 310 308 309 308 298 298 301 300 299 298 297 293 285 278 275 274 271 268 263 260 256 247 240 238 235 232 228 223 224 222 222 218 217 218 223 227 224
299 303 312 309 313 315 312 312 312 314 313 306 302 303 303 303 302 304 302 294 287 286 282 279 275 270 264 256 246 238 235 227 222 219 217 219 220 223 220 213 214 217 221 222 224
299 307 311 309 313 313 312 314 313 317 312 307 307 306 307 307 308 310 307 301 296 290 287 280 275 269 259 249 237 227 223 216 209 212 211 213 216 222 219 217 215 215 218 220 222
301 309 313 309 314 312 311 315 317 317 311 309 309 312 312 311 315 318 314 309 301 296 288 277 270 262 246 235 232 217 213 207 199 191 200 208 212 218 215 215 219 217 219 218 222
303 311 313 312 313 312 313 316 318 315 312 310 312 314 315 319 323 322 317 314 307 300 287 276 267 254 241 225 218 210 205 196 186 188 197 202 205 203 207 210 211 216 218 210 211
304 311 311 316 312 313 314 319 320 314 314 313 314 318 321 326 327 325 319 317 308 301 287 275 257 239 223 220 211 202 190 180 179 188 193 195 204 199 206 208 217 217 221 213 215
304 309 312 315 311 313 315 321 319 316 314 314 319 323 328 328 326 325 320 318 310 301 288 272 252 234 217 214 203 193 183 174 182 181 183 196 202 203 195 195 205 217 218 215 223
303 309 311 310 310 312 316 322 319 316 314 317 325 328 331 328 326 323 321 317 310 299 285 264 241 224 206 211 198 186 195 184 186 186 182 191 202 202 200 214 213 216 217 229 233
Height
10722 10720 10720 10720 10719 10719 10720 10721 10721 10719 10719 10721 10722 10721 10720 10720 10722 10724 10728 10732 10729 10733 10738 10744 10751 10754 10758 10762 10766 10774 10784 10788 10790 10793 10796 10803 10809 10813 10817 10822 10826 10829 10832 10835 10836
10714 10713 10711 10711 10711 10711 10712 10712 10713 10714 10713 10712 10713 10714 10713 10712 10713 10714 10715 10717 10722 10722 10723 10728 10735 10742 10747 10750 10757 10763 10772 10774 10775 10781 10787 10793 10799 10803 10811 10815 10818 10819 10823 10828 10829
10706 10705 10704 10703 10702 10702 10703 10703 10703 10703 10705 10705 10704 10705 10704 10704 10706 10704 10703 10706 10708 10712 10714 10716 10719 10724 10733 10738 10745 10749 10758 10755 10761 10769 10776 10784 10789 10797 10801 10806 10803 10809 10818 10821 10823
10696 10696 10696 10695 10693 10693 10694 10693 10692 10692 10692 10692 10693 10693 10694 10693 10696 10694 10695 10696 10697 10697 10700 10703 10707 10711 10716 10723 10725 10737 10742 10745 10748 10757 10765 10774 10780 10789 10793 10792 10794 10804 10810 10812 10815
10687 10685 10684 10684 10683 10683 10682 10682 10681 10681 10680 10681 10680 10680 10681 10680 10683 10683 10683 10684 10685 10686 10687 10690 10692 10695 10700 10705 10710 10724 10728 10733 10735 10743 10751 10759 10769 10775 10783 10782 10786 10793 10799 10802 10807
10679 10677 10675 10673 10672 10671 10671 10671 10670 10669 10668 10668 10666 10667 10668 10667 10669 10668 10669 10672 10673 10673 10674 10675 10677 10681 10684 10688 10693 10701 10712 10719 10721 10726 10735 10744 10751 10765 10769 10772 10776 10782 10785 10791 10797
10672 10670 10669 10668 10665 10663 10661 10660 10659 10658 10657 10656 10656 10654 10653 10653 10654 10655 10655 10656 10659 10660 10659 10661 10664 10667 10672 10673 10676 10684 10694 10702 10707 10709 10718 10726 10739 10753 10750 10758 10763 10768 10773 10780 10786
10666 10665 10663 10661 10660 10658 10656 10653 10650 10648 10646 10643 10640 10639 10636 10637 10637 10638 10639 10639 10639 10642 10642 10645 10647 10649 10653 10657 10660 10666 10676 10686 10688 10691 10699 10704 10734 10733 10737 10742 10749 10756 10760 10766 10772
10658 10658 10656 10653 10650 10648 10645 10641 10638 10636 10633 10630 10627 10625 10620 10618 10617 10620 10620 10618 10619 10621 10625 10625 10630 10633 10634 10639 10644 10650 10661 10665 10670 10671 10673 10687 10714 10710 10719 10726 10734 10742 10747 10754 10761
10651 10650 10647 10642 10639 10636 10632 10629 10625 10622 10619 10614 10610 10608 10605 10601 10599 10600 10600 10599 10599 10601 10603 10605 10609 10614 10615 10618 10629 10631 10640 10644 10651 10649 10651 10669 10692 10692 10696 10707 10713 10722 10730 10739 10746
10641 10637 10634 10630 10625 10622 10619 10614 10609 10603 10600 10596 10593 10591 10585 10580 10578 10581 10578 10578 10580 10581 10581 10584 10586 10590 10592 10594 10601 10608 10618 10625 10631 10628 10632 10647 10661 10673 10672 10688 10697 10707 10719 10725 10732
10629 10625 10620 10616 10610 10606 10601 10595 10590 10583 10576 10575 10574 10569 10564 10560 10555 10558 10559 10558 10556 10558 10561 10563 10567 10564 10569 10573 10577 10583 10592 10604 10605 10603 10608 10622 10637 10648 10653 10669 10680 10688 10699 10709 10715
10618 10613 10608 10602 10597 10590 10583 10577 10570 10563 10555 10553 10551 10546 10543 10540 10536 10537 10538 10538 10536 10536 10539 10542 10538 10543 10546 10549 10549 10556 10566 10574 10580 10574 10581 10598 10610 10623 10636 10640 10657 10670 10683 10693 10700
10606 10601 10595 10589 10581 10574 10566 10559 10553 10545 10537 10534 10530 10525 10522 10521 10517 10517 10515 10516 10514 10516 10518 10518 10514 10518 10521 10524 10517 10531 10537 10543 10549 10546 10561 10561 10586 10600 10614 10627 10637 10649 10664 10679 10688
10594 10589 10582 10575 10568 10559 10551 10542 10536 10529 10522 10517 10513 10506 10505 10504 10500 10496 10497 10497 10497 10497 10499 10493 10493 10493 10493 10494 10489 10510 10501 10511 10519 10521 10528 10538 10553 10589 10591 10605 10623 10638 10650 10661 10672
10582 10577 10570 10563 10555 10544 10537 10530 10522 10514 10507 10500 10495 10491 10487 10486 10483 10481 10480 10481 10478 10476 10474 10472 10468 10468 10464 10463 10466 10472 10475 10484 10490 10495 10503 10526 10531 10562 10576 10598 10604 10617 10632 10641 10655
10569 10564 10558 10550 10541 10530 10523 10515 10507 10499 10492 10486 10479 10475 10472 10468 10465 10464 10462 10461 10458 10456 10450 10448 10440 10439 10435 10436 10439 10444 10446 10451 10459 10465 10486 10497 10510 10549 10558 10570 10584 10598 10609 10625 10637
10556 10552 10545 10537 10527 10518 10510 10501 10492 10485 10477 10472 10466 10461 10456 10453 10449 10446 10444 10440 10437 10433 10428 10419 10410 10409 10408 10410 10413 10419 10421 10427 10435 10447 10461 10465 10493 10529 10531 10542 10563 10578 10589 10606 10618
10544 10540 10532 10524 10514 10507 10497 10488 10479 10473 10465 10458 10451 10446 10441 10439 10436 10431 10426 10421 10412 10407 10403 10391 10384 10384 10385 10388 10390 10388 10398 10401 10413 10426 10435 10461 10485 10496 10502 10524 10546 10563 10575 10590 10608
10532 10527 10522 10512 10503 10495 10485 10476 10468 10460 10452 10444 10437 10432 10428 10422 10418 10414 10408 10399 10389 10382 10378 10367 10362 10363 10363 10363 10365 10364 10369 10378 10394 10411 10427 10445 10456 10472 10486 10510 10527 10542 10558 10573 10590
10522 10516 10510 10500 10492 10483 10474 10465 10456 10448 10439 10431 10424 10419 10414 10408 10402 10396 10385 10376 10366 10361 10357 10346 10342 10340 10343 10345 10341 10347 10356 10364 10377 10395 10409 10419 10437 10453 10476 10494 10514 10530 10545 10559 10572
10511 10506 10497 10488 10481 10473 10464 10456 10447 10437 10427 10420 10413 10406 10400 10393 10383 10376 10365 10355 10346 10341 10338 10327 10323 10323 10325 10325 10328 10336 10342 10353 10367 10385 10400 10410 10427 10441 10472 10490 10502 10516 10530 10545 10560
10500 10496 10486 10476 10469 10462 10454 10446 10436 10426 10418 10411 10402 10394 10387 10380 10369 10357 10346 10337 10328 10322 10320 10315 10312 10309 10312 10315 10320 10328 10333 10348 10363 10378 10392 10406 10422 10439 10463 10479 10492 10505 10519 10534 10549
10488 10484 10476 10467 10461 10454 10445 10437 10427 10418 10409 10402 10394 10384 10372 10362 10354 10341 10330 10321 10312 10308 10304 10302 10299 10302 10306 10308 10315 10322 10332 10344 10363 10377 10386 10406 10422 10436 10454 10469 10483 10496 10512 10526 10539
10476 10473 10467 10457 10452 10445 10436 10428 10417 10408 10402 10394 10384 10374 10363 10350 10337 10327 10316 10309 10300 10297 10292 10292 10293 10295 10299 10304 10312 10320 10331 10344 10359 10375 10390 10404 10416 10433 10449 10465 10477 10490 10504 10516 10528
10466 10464 10458 10451 10445 10437 10428 10419 10410 10402 10395 10385 10377 10365 10353 10340 10328 10316 10305 10298 10291 10287 10283 10284 10286 10289 10295 10301 10311 10323 10332 10346 10356 10371 10387 10402 10415 10431 10448 10461 10475 10484 10494 10505 10516
10457 10455 10450 10443 10439 10430 10421 10412 10404 10397 10390 10379 10367 10356 10344 10330 10319 10306 10296 10289 10285 10278 10277 10278 10282 10285 10291 10298 10310 10322 10327 10340 10355 10371 10389 10404 10415 10430 10445 10459 10466 10479 10490 10501 10511